Location: Newark
(32.9167°N, 112.9667°W)
Time: 04:16:55
(UTC+00:00)

N. Korean satellite - Pass Details

Date: 23 October 2019
Orbit: 456 x 506 km, 97.2° (Epoch: 16 November)

Event Time Altitude Azimuth Distance (km) Brightness Sun altitude
Rises 12:59:10 0° 19° (NNE) 2,574 10.4 -9.7°
Reaches altitude 10° 13:01:19 10° 27° (NNE) 1,696 9.6 -9.3°
Maximum altitude 13:04:47 42° 99° (E) 725 8.1 -8.5°
Drops below altitude 10° 13:08:17 10° 171° (S) 1,703 9.6 -7.8°
Sets 13:10:27 0° 178° (S) 2,587 10.4 -7.4°
